Location: Kearney
(40.6990°N, 99.0810°W)
Time: 13:47:01
(UTC-06:00)

Cosmos 1271 Rocket - Pass Details

Date: 18 December 2017
Orbit: 501 x 547 km, 81.2° (Epoch: 22 January)

Event Time Altitude Azimuth Distance (km) Brightness Sun altitude
Rises 17:34:28 0° 351° (N) 2,627 6.1 -4.7°
Reaches altitude 10° 17:36:36 10° 352° (N) 1,743 5.2 -5.1°
Maximum altitude 17:40:25 83° 79° (E) 527 2.7 -5.7°
Drops below altitude 10° 17:44:17 10° 169° (S) 1,755 5.6 -6.4°
Sets 17:46:26 0° 170° (S) 2,647 6.5 -6.8°
